• In Austria
  • List of Countries
  • For 7 days
  • Water Temperature
  • Satellite Maps
  • Weather Map
  • News
  • Weather Widgets
  • user-avatar
    Login

    Hourly Weather Lubango

    Today, 15 November, Thursday

    Time Temperature Precipitation Wind Pressure Humidity
    00:00 +18°C° 0 mm 1 mps 609 mmHg 70%
    01:00 +16°C° 0 mm 1 mps 609 mmHg 73%
    02:00 +16°C° 0 mm 1 mps 608 mmHg 76%
    03:00 +15°C° 0 mm 1 mps 608 mmHg 78%
    04:00 +15°C° 0 mm 1 mps 608 mmHg 80%
    05:00 +16°C° 0 mm 1 mps 609 mmHg 73%
    06:00 +18°C° 0 mm 1 mps 610 mmHg 66%
    07:00 +19°C° 0 mm 1 mps 610 mmHg 59%
    08:00 +22°C° 0 mm 1 mps 611 mmHg 48%
    09:00 +25°C° 0 mm 2 mps 612 mmHg 37%
    10:00 +28°C° 0 mm 2 mps 613 mmHg 26%
    11:00 +29°C° 0 mm 3 mps 613 mmHg 23%
    12:00 +30°C° 0 mm 3 mps 613 mmHg 20%
    13:00 +31°C° 0 mm 3 mps 613 mmHg 18%
    14:00 +30°C° 0 mm 4 mps 612 mmHg 21%
    15:00 +30°C° 0 mm 4 mps 611 mmHg 24%
    16:00 +29°C° 0 mm 5 mps 610 mmHg 27%
    17:00 +26°C° 0 mm 4 mps 610 mmHg 38%
    18:00 +23°C° 0 mm 4 mps 609 mmHg 48%
    19:00 +20°C° 0 mm 4 mps 609 mmHg 59%
    20:00 +19°C° 0 mm 3 mps 609 mmHg 63%
    21:00 +18°C° 0 mm 2 mps 609 mmHg 68%
    22:00 +17°C° 0 mm 2 mps 610 mmHg 73%
    23:00 +16°C° 0 mm 1 mps 609 mmHg 75%

    Tomorrow, 16 November, Friday

    Time Temperature Precipitation Wind Pressure Humidity
    00:00 +16°C° 0 mm 1 mps 609 mmHg 77%
    01:00 +15°C° 0 mm 1 mps 608 mmHg 79%
    02:00 +15°C° 0 mm 1 mps 608 mmHg 80%
    03:00 +15°C° 0 mm 1 mps 608 mmHg 80%
    04:00 +15°C° 0 mm 1 mps 608 mmHg 81%
    05:00 +16°C° 0 mm 1 mps 608 mmHg 75%
    06:00 +18°C° 0 mm 1 mps 609 mmHg 69%
    07:00 +19°C° 0 mm 1 mps 610 mmHg 63%
    08:00 +21°C° 0 mm 1 mps 611 mmHg 52%
    09:00 +24°C° 0 mm 1 mps 612 mmHg 41%
    10:00 +27°C° 0 mm 2 mps 613 mmHg 30%
    11:00 +29°C° 0 mm 2 mps 613 mmHg 26%
    12:00 +30°C° 0 mm 3 mps 613 mmHg 23%
    13:00 +31°C° 0 mm 3 mps 613 mmHg 19%
    14:00 +31°C° 0 mm 3 mps 612 mmHg 21%
    15:00 +30°C° 0 mm 3 mps 611 mmHg 23%
    16:00 +30°C° 0 mm 3 mps 611 mmHg 24%
    17:00 +27°C° 0 mm 3 mps 610 mmHg 34%
    18:00 +24°C° 0 mm 3 mps 610 mmHg 44%
    19:00 +21°C° 0 mm 3 mps 609 mmHg 54%
    20:00 +20°C° 0 mm 2 mps 609 mmHg 59%
    21:00 +18°C° 0 mm 2 mps 609 mmHg 65%
    22:00 +18°C° 0 mm 1 mps 610 mmHg 70%
    23:00 +18°C° 0 mm 1 mps 609 mmHg 72%

    Day after tomorrow, 17 November, Saturday

    Time Temperature Precipitation Wind Pressure Humidity
    00:00 +16°C° 0 mm 1 mps 609 mmHg 74%
    01:00 +16°C° 0 mm 1 mps 608 mmHg 75%
    02:00 +16°C° 0 mm 1 mps 608 mmHg 75%
    03:00 +15°C° 0 mm 1 mps 608 mmHg 75%
    04:00 +15°C° 0 mm 1 mps 607 mmHg 75%
    05:00 +16°C° 0 mm 1 mps 608 mmHg 69%
    06:00 +19°C° 0 mm 1 mps 609 mmHg 63%
    07:00 +20°C° 0 mm 1 mps 610 mmHg 57%
    08:00 +23°C° 0 mm 1 mps 611 mmHg 48%
    09:00 +25°C° 0 mm 2 mps 612 mmHg 39%
    10:00 +28°C° 0 mm 2 mps 613 mmHg 30%
    11:00 +29°C° 0 mm 2 mps 613 mmHg 27%
    12:00 +30°C° 0 mm 3 mps 613 mmHg 24%
    13:00 +31°C° 0 mm 3 mps 612 mmHg 22%
    14:00 +30°C° 0 mm 3 mps 612 mmHg 25%
    15:00 +29°C° 0 mm 4 mps 611 mmHg 29%
    16:00 +28°C° 0 mm 4 mps 610 mmHg 32%
    17:00 +26°C° 0 mm 4 mps 609 mmHg 40%
    18:00 +22°C° 0 mm 3 mps 609 mmHg 48%
    19:00 +20°C° 0 mm 3 mps 609 mmHg 56%
    20:00 +19°C° 0 mm 2 mps 609 mmHg 60%
    21:00 +18°C° 0 mm 2 mps 610 mmHg 64%
    22:00 +17°C° 0 mm 2 mps 610 mmHg 68%
    23:00 +16°C° 0 mm 2 mps 609 mmHg 70%

    18 November, Sunday

    Time Temperature Precipitation Wind Pressure Humidity
    00:00 +16°C° 0 mm 1 mps 609 mmHg 72%
    01:00 +15°C° 0 mm 1 mps 609 mmHg 74%
    02:00 +15°C° 0 mm 1 mps 608 mmHg 74%
    03:00 +15°C° 0 mm 1 mps 608 mmHg 74%
    04:00 +14°C° 0 mm 1 mps 608 mmHg 74%
    05:00 +16°C° 0 mm 1 mps 609 mmHg 66%
    06:00 +18°C° 0 mm 1 mps 610 mmHg 58%
    07:00 +18°C° 0 mm 2 mps 610 mmHg 50%
    08:00 +21°C° 0 mm 2 mps 611 mmHg 42%
    09:00 +24°C° 0 mm 2 mps 612 mmHg 34%
    10:00 +27°C° 0 mm 3 mps 613 mmHg 27%
    11:00 +28°C° 0 mm 3 mps 613 mmHg 25%
    12:00 +29°C° 0 mm 3 mps 613 mmHg 24%
    13:00 +30°C° 0 mm 4 mps 612 mmHg 22%
    14:00 +29°C° 0 mm 4 mps 611 mmHg 25%
    15:00 +28°C° 0 mm 4 mps 611 mmHg 28%
    16:00 +27°C° 0 mm 5 mps 610 mmHg 31%
    17:00 +25°C° 0 mm 4 mps 610 mmHg 38%
    18:00 +21°C° 0 mm 3 mps 610 mmHg 44%
    19:00 +19°C° 0 mm 3 mps 609 mmHg 50%
    20:00 +19°C° 0 mm 2 mps 609 mmHg 54%
    21:00 +18°C° 0 mm 2 mps 610 mmHg 57%
    22:00 +18°C° 0 mm 1 mps 610 mmHg 61%
    23:00 +18°C° 0 mm 1 mps 609 mmHg 61%

    19 November, Monday

    Time Temperature Precipitation Wind Pressure Humidity
    00:00 +18°C° 0 mm 1 mps 609 mmHg 62%
    01:00 +16°C° 0 mm 0 mps 609 mmHg 63%
    02:00 +16°C° 0 mm 1 mps 608 mmHg 65%
    03:00 +16°C° 0 mm 1 mps 608 mmHg 66%
    04:00 +15°C° 0 mm 1 mps 608 mmHg 68%
    05:00 +16°C° 0 mm 1 mps 609 mmHg 62%
    06:00 +19°C° 0 mm 1 mps 609 mmHg 57%
    07:00 +20°C° 0 mm 1 mps 610 mmHg 52%
    08:00 +22°C° 0 mm 1 mps 611 mmHg 44%
    09:00 +25°C° 0 mm 1 mps 612 mmHg 35%
    10:00 +28°C° 0 mm 1 mps 613 mmHg 27%
    11:00 +29°C° 0 mm 1 mps 613 mmHg 25%
    12:00 +30°C° 0 mm 2 mps 613 mmHg 23%
    13:00 +31°C° 0 mm 2 mps 612 mmHg 21%
    14:00 +30°C° 0 mm 3 mps 611 mmHg 25%
    15:00 +28°C° 0 mm 3 mps 611 mmHg 29%
    16:00 +27°C° 0 mm 3 mps 610 mmHg 33%
    17:00 +25°C° 0.1 mm 3 mps 610 mmHg 38%
    18:00 +22°C° 0.1 mm 3 mps 609 mmHg 44%
    19:00 +20°C° 0.1 mm 2 mps 609 mmHg 50%
    20:00 +19°C° 0 mm 2 mps 609 mmHg 54%
    21:00 +19°C° 0 mm 1 mps 609 mmHg 58%
    22:00 +18°C° 0 mm 1 mps 609 mmHg 62%
    23:00 +18°C° 0 mm 1 mps 609 mmHg 63%

    20 November, Tuesday

    Time Temperature Precipitation Wind Pressure Humidity
    00:00 +18°C° 0 mm 1 mps 609 mmHg 64%
    01:00 +16°C° 0 mm 1 mps 608 mmHg 65%
    02:00 +16°C° 0 mm 1 mps 608 mmHg 65%
    03:00 +15°C° 0 mm 0 mps 608 mmHg 65%
    04:00 +15°C° 0 mm 0 mps 608 mmHg 66%
    05:00 +16°C° 0 mm 0 mps 609 mmHg 61%
    06:00 +17°C° 0 mm 0 mps 609 mmHg 56%
    07:00 +18°C° 0 mm 0 mps 610 mmHg 52%
    08:00 +23°C° 0 mm 1 mps 611 mmHg 44%
    09:00 +25°C° 0 mm 1 mps 612 mmHg 36%
    10:00 +28°C° 0 mm 1 mps 613 mmHg 28%
    11:00 +29°C° 0 mm 2 mps 612 mmHg 26%
    12:00 +30°C° 0 mm 2 mps 612 mmHg 25%
    13:00 +30°C° 0 mm 2 mps 612 mmHg 23%
    14:00 +29°C° 0 mm 3 mps 611 mmHg 26%
    15:00 +28°C° 0 mm 3 mps 610 mmHg 30%
    16:00 +27°C° 0 mm 3 mps 609 mmHg 33%
    17:00 +25°C° 0 mm 3 mps 609 mmHg 38%
    18:00 +23°C° 0 mm 2 mps 609 mmHg 43%
    19:00 +21°C° 0 mm 2 mps 609 mmHg 47%
    20:00 +20°C° 0.1 mm 2 mps 609 mmHg 50%
    21:00 +20°C° 0.1 mm 1 mps 609 mmHg 53%
    22:00 +20°C° 0.1 mm 1 mps 609 mmHg 57%
    23:00 +19°C° 0 mm 1 mps 609 mmHg 60%
    Show more